Capitol Logistics 944


EHAM
Schiphol International Airport
Amsterdam, NL
LPPT
Aeroporto da Portela de Sacavem
Lisbon, PT

Activity Log

Date Flight Route Aircraft Duration
10/24/2019 CPX944 Not Available B738 2h 50m

Route Details

Aircraft Information
Primary: Boeing 737-800BCF
Backup: Not Available
Route Data
Distance: 943nm
Sched. Duration: 2h 20m
Avg. Duration: 2h 50m (+30m)
Times Flown: 1
Recm'd Route: Not Available
Planned Altitude: 36,000ft
Origin Wx: EHAM 260725Z 19014KT 9999 FEW013 BKN021 09/07 Q0999 NOSIG
Dest. Wx: LPPT 260730Z 29003KT 270V010 9999 FEW024 12/09 Q1022
Notes:

Financial History
Total Freight: 44,352lbs
Average Load: 44,352lbs/flt
Fuel Used: 15,317lbs
Avg. Fuel Used: 15,317lbs/flt
Fuel Expense: $12,254
Avg. Fuel Expense: $12,254
Avg. Fuel Cost: $0.80/lbs
Total Gross Income: $88,704
Pilot Pay: $229
Total Expenses: $9,632
Total Revenue: $66,141
Average Revenue: $88,704.00